Regional Weather Roundup
Issued by NWS

Home | Current Version | Previous Version | Graphics & Text | Print | Product List | Glossary On
Versions: 1 2 3 4 5 6 7 8 9 10 11 12 13 14 15 16 17 18 19 20 21 22 23 24 25 26 27 28 29 30 31 32 33 34 35 36 37 38 39 40 41 42 43 44 45 46 47 48 49 50
000
ASUS43 KTOP 211159
RWRKS

WEATHER ROUNDUP FOR KANSAS
NATIONAL WEATHER SERVICE GOODLAND KS
700 AM CDT TUE OCT 21 2014

NOTE:  "FAIR" INDICATES FEW OR NO CLOUDS BELOW 12,000 FEET WITH NO
SIGNIFICANT WEATHER AND/OR OBSTRUCTIONS TO VISIBILITY.

KSZ001>006-013>018-027>032-041>047-211300-
NORTHWEST KANSAS

CITY           SKY/WX    TMP DP  RH WIND       PRES   REMARKS
GOODLAND       PTCLDY    49  47  93 S12       30.07S
6HR MIN TEMP:  42; 6HR MAX TEMP:  53;

HAYS           CLEAR     43  36  75 CALM      30.08S
HILL CITY      CLEAR     40  37  89 NW5       30.09S
6HR MIN TEMP:  40; 6HR MAX TEMP:  51;

RUSSELL        CLEAR     47  43  86 S7        30.07S
6HR MIN TEMP:  47; 6HR MAX TEMP:  52;

$$

KSZ061>065-074>080-084>089-211300-
SOUTHWEST KANSAS

CITY           SKY/WX    TMP DP  RH WIND       PRES   REMARKS
DODGE CITY     CLEAR     54  52  93 SE8       30.07F FOG
6HR MIN TEMP:  52; 6HR MAX TEMP:  57;

ELKHART          N/A     54  50  87 SW6         N/A
GARDEN CITY    CLEAR     46  44  93 CALM      30.07S
6HR MIN TEMP:  45; 6HR MAX TEMP:  52;

GREAT BEND     PTCLDY    46  39  76 CALM      30.08F
LIBERAL        CLOUDY    54  48  82 CALM      30.08S VSB 1/4
$$

KSZ066>073-081>083-090>101-211300-
SOUTHEAST KANSAS

CITY           SKY/WX    TMP DP  RH WIND       PRES   REMARKS
CHANUTE        CLEAR     45  45 100 CALM      30.10R
6HR MIN TEMP:  45; 6HR MAX TEMP:  50;

COFFEYVILLE    FOG       49  49 100 NE3       30.09S VSB 1/2
6HR MIN TEMP:  48; 6HR MAX TEMP:  55;

HUTCHINSON     PTCLDY    49  45  86 CALM      30.09S
6HR MIN TEMP:  46; 6HR MAX TEMP:  52;

NEWTON         CLEAR     52  41  66 SE6       30.11S
PARSONS        CLEAR     46  46 100 CALM      30.11R
6HR MIN TEMP:  45; 6HR MAX TEMP:  51;

WICHITA INTL   MOCLDY    55  50  83 E6        30.08S
6HR MIN TEMP:  50; 6HR MAX TEMP:  56;

WICHITA JABRA  CLEAR     50  45  83 CALM      30.09S
6HR MIN TEMP:  47; 6HR MAX TEMP:  55;

WINFIELD       CLEAR     54  53  97 CALM      30.09S
6HR MIN TEMP:  51; 6HR MAX TEMP:  56;

$$

KSZ007>012-019>026-033>040-048>060-102>105-211300-
NORTHEAST KANSAS

CITY           SKY/WX    TMP DP  RH WIND       PRES   REMARKS
CONCORDIA      CLEAR     41  40  96 CALM      30.09R
6HR MIN TEMP:  41; 6HR MAX TEMP:  53;

EMPORIA        CLEAR     45  44  97 CALM      30.10S
6HR MIN TEMP:  45; 6HR MAX TEMP:  51;

LAWRENCE       CLEAR     38  36  92 CALM      30.12R FOG
6HR MIN TEMP:  36; 6HR MAX TEMP:  41;

MANHATTAN      CLEAR     37  37 100 CALM      30.10S
6HR MIN TEMP:  37; 6HR MAX TEMP:  43;

OLATHE IND     CLEAR     44  41  89 CALM      30.12R
6HR MIN TEMP:  43; 6HR MAX TEMP:  50;

OLATHE EXE     CLEAR     48  43  82 CALM      30.10S
6HR MIN TEMP:  47; 6HR MAX TEMP:  53;

SALINA         CLEAR     46  42  86 CALM      30.09S
6HR MIN TEMP:  44; 6HR MAX TEMP:  50;

TOPEKA BILLARD CLEAR     42  40  92 CALM      30.12R
6HR MIN TEMP:  40; 6HR MAX TEMP:  46;

TOPEKA FORBES  CLEAR     40  38  93 CALM      30.11R
6HR MIN TEMP:  39; 6HR MAX TEMP:  45;

$$


USA.gov is the U.S. government's official web portal to all federal, state and local government web resources and services.